Location: Esp�n
(42.4593°N, 0.2047°W)
Time: 23:50:28
(UTC+00:00)

Cosmos 1151 Rocket - Pass Details

Date: 07 June 2020
Orbit: 593 x 615 km, 82.5° (Epoch: 11 July)

Event Time Altitude Azimuth Distance (km) Brightness Sun altitude
Rises 03:11:39 0° 353° (N) 2,895 7.1 -11.2°
Reaches altitude 10° 03:13:54 10° 356° (N) 1,986 6.3 -10.9°
Maximum altitude 03:18:18 74° 81° (E) 646 3.3 -10.3°
Drops below altitude 10° 03:22:39 10° 167° (SSE) 1,967 5.3 -9.7°
Sets 03:24:52 0° 169° (S) 2,866 6.2 -9.4°
